Weather History for Mojave, CA

Change the Weather History Date:

Sunday, November 3, 2013

  Actual Average Record
Temperature  
Mean Temperature 62 °F -  
Max Temperature 71 °F 72 °F 82 °F (2010)
Min Temperature 53 °F 42 °F 33 °F (2011)
Degree Days  
Heating Degree Days 3    
Growing Degree Days 12 (Base 50)    
Moisture  
Dew Point 34 °F    
Average Humidity 39    
Maximum Humidity 51    
Minimum Humidity 23    
Precipitation  
Precipitation 0.00 in - - ()
Sea Level Pressure  
Sea Level Pressure 29.83 in    
Wind  
Wind Speed 19 mph (West)    
Max Wind Speed 33 mph    
Max Gust Speed 41 mph    
Visibility 10 miles    
Events      
Averages and records for this station are not official NWS values.
T = Trace of Precipitation, MM = Missing Value Source: NWS Daily Summary

Daily Weather History Graph

Daily Weather History Graph

Search for Another Location

Airport:

Trip Planner

Search our weather history database for the weather conditions in past years. The results will help you decide how hot, cold, wet, or windy it might be!

Date:

Astronomy

Nov. 03, 2013 Rise Set
Actual Time 6:15 AM PST 4:55 PM PST
Civil Twilight 5:49 AM PST 5:22 PM PST
Nautical Twilight 5:19 AM PST 5:52 PM PST
Astronomical Twilight 4:49 AM PST 6:21 PM PST
Moon 6:24 AM PST (11/3) 5:15 PM PST (11/3)
Length of Visible Light 11h 32m
Length of Day
10h 40m
New Moon, 0% of the Moon is Illuminated
Nov 3
New Moon
Nov 9
First Quarter
Nov 17
Full
Nov 25
Last Quarter
Dec 2
New

Hourly Weather History & Observations

Time (PST) Temp. Dew Point Humidity Pressure Visibility Wind Dir Wind Speed Gust Speed Precip Events Conditions
1:15 AM 57.2 °F 32.0 °F 38% 29.86 in 10.0 mi SW 20.7 mph 28.8 mph N/A   Clear
1:35 AM 59.0 °F 32.0 °F 36% 29.86 in 10.0 mi West 15.0 mph 26.5 mph N/A   Clear
1:55 AM 59.0 °F 30.2 °F 34% 29.85 in 10.0 mi WSW 13.8 mph 26.5 mph N/A   Clear
2:15 AM 59.0 °F 30.2 °F 34% 29.85 in 10.0 mi WSW 19.6 mph 25.3 mph N/A   Clear
2:35 AM 59.0 °F 32.0 °F 36% 29.85 in 10.0 mi West 17.3 mph 20.7 mph N/A   Clear
2:55 AM 59.0 °F 32.0 °F 36% 29.84 in 10.0 mi WSW 16.1 mph 19.6 mph N/A   Clear
3:15 AM 57.2 °F 33.8 °F 41% 29.85 in 10.0 mi SW 12.7 mph - N/A   Clear
3:35 AM 57.2 °F 33.8 °F 41% 29.84 in 10.0 mi WSW 13.8 mph 23.0 mph N/A   Clear
3:55 AM 57.2 °F 35.6 °F 44% 29.84 in 10.0 mi WSW 12.7 mph 20.7 mph N/A   Clear
4:15 AM 57.2 °F 33.8 °F 41% 29.85 in 10.0 mi West 12.7 mph 16.1 mph N/A   Clear
4:35 AM 57.2 °F 35.6 °F 44% 29.84 in 10.0 mi SW 15.0 mph 20.7 mph N/A   Clear
4:55 AM 57.2 °F 35.6 °F 44% 29.85 in 10.0 mi WSW 12.7 mph 19.6 mph N/A   Clear
5:15 AM 57.2 °F 35.6 °F 44% 29.84 in 10.0 mi WSW 18.4 mph - N/A   Clear
5:35 AM 55.4 °F 35.6 °F 47% 29.85 in 9.0 mi SW 21.9 mph 26.5 mph N/A   Clear
5:55 AM 55.4 °F 35.6 °F 47% 29.85 in 10.0 mi WSW 23.0 mph 29.9 mph N/A   Clear
6:15 AM 55.4 °F 37.4 °F 51% 29.86 in 8.0 mi WSW 21.9 mph - N/A   Clear
6:35 AM 55.4 °F 37.4 °F 51% 29.86 in 7.0 mi WSW 20.7 mph - N/A   Clear
6:55 AM 55.4 °F 37.4 °F 51% 29.85 in 8.0 mi SW 18.4 mph 34.5 mph N/A   Clear
7:15 AM 55.4 °F 37.4 °F 51% 29.85 in 7.0 mi SW 20.7 mph 35.7 mph N/A   Clear
7:35 AM 60.8 °F 32.0 °F 34% 29.87 in 10.0 mi WSW 15.0 mph 18.4 mph N/A   Clear
7:55 AM 60.8 °F 35.6 °F 39% 29.88 in 10.0 mi West 13.8 mph - N/A   Clear
8:15 AM 64.4 °F 30.2 °F 28% 29.86 in 10.0 mi NNW 18.4 mph 24.2 mph N/A   Clear
8:35 AM 64.4 °F 32.0 °F 30% 29.87 in 10.0 mi WNW 20.7 mph - N/A   Clear
8:55 AM 62.6 °F 35.6 °F 37% 29.86 in 9.0 mi NW 25.3 mph 35.7 mph N/A   Clear
9:15 AM 62.6 °F 32.0 °F 32% 29.88 in 10.0 mi West 15.0 mph 32.2 mph N/A   Clear
9:35 AM 62.6 °F 37.4 °F 39% 29.88 in 10.0 mi West 24.2 mph 36.8 mph N/A   Clear
9:55 AM 62.6 °F 37.4 °F 39% 29.88 in 10.0 mi WNW 25.3 mph 38.0 mph N/A   Clear
10:15 AM 62.6 °F 37.4 °F 39% 29.88 in 10.0 mi WSW 9.2 mph 23.0 mph N/A   Clear
10:35 AM 66.2 °F 33.8 °F 30% 29.88 in 10.0 mi WSW 4.6 mph - N/A   Clear
10:55 AM 64.4 °F 37.4 °F 37% 29.88 in 10.0 mi West 17.3 mph - N/A   Clear
11:15 AM 66.2 °F 37.4 °F 35% 29.87 in 10.0 mi West 19.6 mph - N/A   Clear
11:35 AM 66.2 °F 37.4 °F 35% 29.86 in 10.0 mi West 18.4 mph - N/A   Clear
11:55 AM 68.0 °F 35.6 °F 30% 29.84 in 10.0 mi West 19.6 mph 25.3 mph N/A   Clear
12:15 PM 71.6 °F 32.0 °F 23% 29.84 in 10.0 mi North 9.2 mph 18.4 mph N/A   Clear
12:35 PM 71.6 °F 33.8 °F 25% 29.82 in 10.0 mi WNW 21.9 mph 29.9 mph N/A   Clear
12:55 PM 68.0 °F 35.6 °F 30% 29.82 in 10.0 mi West 24.2 mph 29.9 mph N/A   Clear
1:15 PM 68.0 °F 35.6 °F 30% 29.82 in 10.0 mi West 18.4 mph 26.5 mph N/A   Clear
1:35 PM 68.0 °F 35.6 °F 30% 29.82 in 10.0 mi West 16.1 mph 25.3 mph N/A   Clear
1:55 PM 68.0 °F 35.6 °F 30% 29.82 in 10.0 mi West 19.6 mph 25.3 mph N/A   Clear
2:15 PM 66.2 °F 35.6 °F 32% 29.81 in 10.0 mi West 25.3 mph 35.7 mph N/A   Clear
2:35 PM 66.2 °F 35.6 °F 32% 29.80 in 10.0 mi West 33.4 mph 41.4 mph N/A   Clear
2:55 PM 64.4 °F 35.6 °F 34% 29.80 in 10.0 mi West 28.8 mph 39.1 mph N/A   Clear
3:15 PM 64.4 °F 35.6 °F 34% 29.79 in 10.0 mi West 32.2 mph - N/A   Clear
3:35 PM 62.6 °F 33.8 °F 34% 29.79 in 10.0 mi West 31.1 mph 35.7 mph N/A   Clear
3:55 PM 62.6 °F 33.8 °F 34% 29.79 in 10.0 mi West 28.8 mph 35.7 mph N/A   Clear
4:15 PM 60.8 °F 33.8 °F 36% 29.80 in 10.0 mi West 19.6 mph 27.6 mph N/A   Clear
4:35 PM 59.0 °F 33.8 °F 39% 29.79 in 10.0 mi West 20.7 mph 29.9 mph N/A   Clear
4:55 PM 57.2 °F 33.8 °F 41% 29.79 in 10.0 mi West 18.4 mph 26.5 mph N/A   Clear
5:15 PM 57.2 °F 35.6 °F 44% 29.80 in 10.0 mi West 26.5 mph 35.7 mph N/A   Clear
5:35 PM 55.4 °F 35.6 °F 47% 29.80 in 10.0 mi West 27.6 mph 34.5 mph N/A   Clear
5:55 PM 55.4 °F 33.8 °F 44% 29.80 in 10.0 mi West 21.9 mph 34.5 mph N/A   Clear
6:15 PM 55.4 °F 35.6 °F 47% 29.81 in 10.0 mi West 31.1 mph 39.1 mph N/A   Clear
6:35 PM 55.4 °F 35.6 °F 47% 29.82 in 10.0 mi West 32.2 mph 41.4 mph N/A   Clear
6:55 PM 53.6 °F 35.6 °F 51% 29.82 in 10.0 mi West 31.1 mph 41.4 mph N/A   Clear
7:15 PM 55.4 °F 35.6 °F 47% 29.82 in 10.0 mi West 21.9 mph 32.2 mph N/A   Clear
7:35 PM 55.4 °F 35.6 °F 47% 29.82 in 10.0 mi WNW 20.7 mph 27.6 mph N/A   Clear
7:55 PM 55.4 °F 33.8 °F 44% 29.83 in 10.0 mi NW 12.7 mph 20.7 mph N/A   Clear
8:15 PM 55.4 °F 32.0 °F 41% 29.82 in 10.0 mi NW 9.2 mph 19.6 mph N/A   Clear
8:35 PM 55.4 °F 32.0 °F 41% 29.82 in 10.0 mi SW 8.1 mph - N/A   Clear
8:55 PM 55.4 °F 32.0 °F 41% 29.82 in 10.0 mi West 13.8 mph - N/A   Clear
9:15 PM 55.4 °F 32.0 °F 41% 29.83 in 10.0 mi West 23.0 mph 29.9 mph N/A   Clear
9:35 PM 55.4 °F 33.8 °F 44% 29.82 in 10.0 mi West 25.3 mph 35.7 mph N/A   Clear
9:55 PM 55.4 °F 33.8 °F 44% 29.82 in 10.0 mi West 21.9 mph 25.3 mph N/A   Clear
10:15 PM 55.4 °F 33.8 °F 44% 29.81 in 10.0 mi West 23.0 mph 26.5 mph N/A   Clear
10:35 PM 55.4 °F 32.0 °F 41% 29.81 in 10.0 mi West 17.3 mph 24.2 mph N/A   Clear
10:55 PM 55.4 °F 32.0 °F 41% 29.80 in 10.0 mi West 12.7 mph - N/A   Clear